STARLINK-11627, 63107

Orbit data source: Space-Track

STARLINK-11627, 63107 is a payload satellite owned by SpaceX/Seattle (US) in LEO that was launched on Thu, 27 Feb 2025 UTC via an FALCON 9 launch vehicle from the Air Force Eastern Test Range (AFETR). Payload-class satellites include a variety of spacecraft equipped with specific instruments for various scientific and technological missions. These include communications satellites like Starlink; space stations such as the ISS; scientific satellites like the Hubble; Earth observation satellites from companies like Planet Labs, Umbra, and HawkEye 360; GPS; miniature CubeSats for education and research; and military/defense satellites.

Loading next visibility...
Identifier
63107, 2025-039D
Orbit
LEO
Country
Flag of USUS
Related business
Manufacturer
SpaceX/Seattle
Mission
Operational Commercial Communications
Bus & Motor
STARLINK V2MD, Unknown motor
Mass
960 kg wet, ~910 kg dry
Launch date (UTC)
2025-02-27 (1 year ago)
Launch vehicle
FALCON 9
Launch site
Air Force Eastern Test Range (AFETR)
Object type
Payload
Rocket body
Debris
Shape & HBR
Box + 2 Pan, 18.1 m
Radar Cross Section
36.964 m², Large (>1 m²)

Expand to show TLE details & history
Last TLE update: 12 hours ago

TLE from 12 hours ago
0 STARLINK-11627
1 63107U 25039D   26104.46951810  .00142283  00000-0  10923-2 0  9990
2 63107  43.0024  21.0899 0000677 354.7506   5.3355 15.70866524 65243
Epoch: 2026-04-14T11:16Z
TLE epoch observation values (Epoch: 2026-04-14T11:16:06.363Z)
Latitude
Longitude
9.41807°
Altitude
355.737 km
Speed
7.698 km/s
True Right ascension
01h 24m 21s
True Declination
0° 00' 00"
Sunlit
Object was in daylight at epoch
Visualization orbit readout
Latitude
Unknown
Longitude
Unknown
Altitude
Unknown
Speed
Unknown
Apparent Right ascension
Unknown
Apparent Declination
Unknown
Sunlit
N/A
Visualization observer readout
Local Sidereal Time
05:33:06
Azimuth
Unknown
Elevation
Unknown
Doppler factor
Unknown
Orbital elements
Apogee altitude
358.857 km
Perigee altitude
357.944 km
Semi-major axis
6,736.537 km
Eccentricity
0.00007
Inclination
43.0024°
RAAN
21.0899°
Arg. of periapsis
354.7506°
True anomaly
5.33622°
Mean anomaly
5.3355°
Eccentric anomaly
5.33586°
Mean motion
3.92544 °/min
Orbital period
91.71 mins
BSTAR
0.0010923
Loading maneuver chart data...
Computing Atmospheric mass density...
Loading historical data...
Loading historical data...
Loading historical data...
Loading historical data...
Loading historical data...
Loading historical data...
Loading historical data...

Documentation

Showing up to 5 results
|